This is the latest recevied weather packets stored in our database for station/object K5NWZ. If no packets are shown the sender has not sent any weather packets the latest 10 day(s).
| Time | Temp. | Humidity | Pressure | Rain* | Wind** | Luminosity | Snow |
|---|---|---|---|---|---|---|---|
| 1777933984 | 18.33° C | 35% | 1016.9 hPa | 0 mm | - | 149 W/m² | - |
| 1777933681 | 18.89° C | 33% | 1016.9 hPa | 0 mm | - | 205 W/m² | - |
| 1777933378 | 19.44° C | 34% | 1016.9 hPa | 0 mm | - | 272 W/m² | - |
| 1777933075 | 19.44° C | 35% | 1017.1 hPa | 0 mm | - | 555 W/m² | - |
| 1777932772 | 19.44° C | 34% | 1016.8 hPa | 0 mm | - | 547 W/m² | - |
| 1777932469 | 18.89° C | 35% | 1017.1 hPa | 0 mm | - | 562 W/m² | - |
| 1777932166 | 18.89° C | 37% | 1017 hPa | 0 mm | - | 516 W/m² | - |
| 1777931863 | 17.78° C | 38% | 1017.3 hPa | 0 mm | - | 591 W/m² | - |
| 1777931560 | 17.78° C | 37% | 1017.6 hPa | 0 mm | - | 213 W/m² | - |
| 1777931256 | 17.22° C | 38% | 1017.6 hPa | 0 mm | - | 259 W/m² | - |
| 1777930952 | 17.22° C | 40% | 1017.6 hPa | 0 mm | - | 253 W/m² | - |
| 1777930649 | 16.67° C | 40% | 1017.6 hPa | 0 mm | - | 194 W/m² | - |
| 1777930345 | 16.67° C | 39% | 1017.5 hPa | 0 mm | - | 165 W/m² | - |
| 1777930043 | 16.67° C | 39% | 1017.8 hPa | 0 mm | - | 130 W/m² | - |
| 1777929739 | 16.67° C | 40% | 1017.7 hPa | 0 mm | - | 131 W/m² | - |
| 1777929437 | 16.67° C | 40% | 1017.7 hPa | 0 mm | - | 137 W/m² | - |
| 1777929133 | 16.67° C | 41% | 1017.7 hPa | 0 mm | - | 154 W/m² | - |
| 1777928830 | 16.67° C | 41% | 1017.8 hPa | 0 mm | - | 187 W/m² | - |
| 1777928527 | 17.22° C | 40% | 1017.6 hPa | 0 mm | - | 234 W/m² | - |
| 1777928224 | 17.78° C | 37% | 1017.6 hPa | 0 mm | - | 337 W/m² | - |
| 1777927921 | 17.78° C | 36% | 1017.5 hPa | 0 mm | - | 535 W/m² | - |
| 1777927620 | 17.78° C | 35% | 1017.7 hPa | 0 mm | - | 591 W/m² | - |
| 1777927319 | 17.78° C | 37% | 1017.6 hPa | 0 mm | - | 413 W/m² | - |
| 1777927017 | 17.78° C | 35% | 1017.4 hPa | 0 mm | - | 344 W/m² | - |
| 1777926714 | 17.22° C | 34% | 1017.1 hPa | 0 mm | - | 188 W/m² | - |
* Rain latest hour (hover to see other rain measurements)
** Current wind speed in m/s (hover to see current wind gust speed)